Weather History for Arbor Vitae, WI

Change the Weather History Date:

Sunday, May 18, 2014

  Actual Average Record
Temperature  
Mean Temperature 56 °F -  
Max Temperature 73 °F 68 °F 90 °F (1972)
Min Temperature 39 °F 41 °F 26 °F (1915)
Degree Days  
Heating Degree Days 10    
Growing Degree Days 6 (Base 50)    
Moisture  
Dew Point 30 °F    
Average Humidity 39    
Maximum Humidity 65    
Minimum Humidity 22    
Precipitation  
Precipitation 0.00 in - - ()
Sea Level Pressure  
Sea Level Pressure 30.03 in    
Wind  
Wind Speed 4 mph (WSW)    
Max Wind Speed 17 mph    
Max Gust Speed 24 mph    
Visibility 10 miles    
Events      
Averages and records for this station are not official NWS values.
T = Trace of Precipitation, MM = Missing Value Source: NWS Daily Summary

Daily Weather History Graph

Daily Weather History Graph

Search for Another Location

Airport:

Trip Planner

Search our weather history database for the weather conditions in past years. The results will help you decide how hot, cold, wet, or windy it might be!

Date:

Astronomy

May. 18, 2014 Rise Set
Actual Time 5:23 AM CDT 8:27 PM CDT
Civil Twilight 4:48 AM CDT 9:03 PM CDT
Nautical Twilight 4:02 AM CDT 9:49 PM CDT
Astronomical Twilight 3:07 AM CDT 10:45 PM CDT
Moon No Moon Rise 9:14 AM CDT
Length of Visible Light 16h 15m
Length of Day
15h 04m
Waning Gibbous, 81% of the Moon is Illuminated
May 18
Waning Gibbous
May 21
Last Quarter
May 28
New
Jun 5
First Quarter
Jun 12
Full

Hourly Weather History & Observations

Time (CDT) Temp. Windchill Dew Point Humidity Pressure Visibility Wind Dir Wind Speed Gust Speed Precip Events Conditions
12:15 AM 39.2 °F - 21.2 °F 49% 30.00 in 10.0 mi Calm Calm - N/A   Clear
12:35 AM 39.2 °F - 22.6 °F 52% 30.00 in 10.0 mi Calm Calm - N/A   Clear
12:55 AM 39.2 °F - 23.9 °F 54% 30.00 in 10.0 mi Calm Calm - N/A   Clear
1:15 AM 39.2 °F - 23.7 °F 54% 30.00 in 10.0 mi Calm Calm - N/A   Clear
1:35 AM 39.2 °F - 24.4 °F 56% 30.00 in 10.0 mi Calm Calm - N/A   Clear
1:55 AM 39.2 °F 37.0 °F 24.8 °F 56% 30.00 in 10.0 mi South 3.5 mph - N/A   Scattered Clouds
2:15 AM 39.6 °F 36.3 °F 27.0 °F 61% 30.00 in 10.0 mi South 4.6 mph - N/A   Scattered Clouds
2:35 AM 41.5 °F 38.6 °F 29.3 °F 62% 30.00 in 10.0 mi SSW 4.6 mph - N/A   Mostly Cloudy
2:55 AM 41.5 °F 39.6 °F 29.8 °F 63% 30.00 in 10.0 mi SSW 3.5 mph - N/A   Mostly Cloudy
3:15 AM 44.1 °F 42.5 °F 30.0 °F 58% 30.00 in 10.0 mi SSW 3.5 mph - N/A   Mostly Cloudy
3:35 AM 44.1 °F 42.5 °F 29.3 °F 56% 30.01 in 10.0 mi SSW 3.5 mph - N/A   Mostly Cloudy
3:55 AM 42.8 °F 40.1 °F 28.9 °F 58% 30.01 in 10.0 mi SSW 4.6 mph - N/A   Scattered Clouds
4:15 AM 42.3 °F 39.4 °F 29.1 °F 60% 30.01 in 10.0 mi SSW 4.6 mph - N/A   Mostly Cloudy
4:35 AM 41.5 °F 38.6 °F 28.9 °F 61% 30.01 in 10.0 mi SSW 4.6 mph - N/A   Scattered Clouds
4:55 AM 41.5 °F 38.6 °F 29.3 °F 62% 30.01 in 10.0 mi SSW 4.6 mph - N/A   Scattered Clouds
5:35 AM 39.7 °F 36.5 °F 28.8 °F 65% 30.03 in 10.0 mi SSW 4.6 mph - N/A   Scattered Clouds
5:55 AM 39.2 °F 37.0 °F 28.0 °F 64% 30.03 in 10.0 mi SSW 3.5 mph - N/A   Scattered Clouds
6:15 AM 41.5 °F - 29.1 °F 61% 30.03 in 10.0 mi Calm Calm - N/A   Clear
6:35 AM 44.4 °F - 31.5 °F 60% 30.03 in 10.0 mi Calm Calm - N/A   Clear
6:55 AM 48.6 °F - 34.3 °F 58% 30.04 in 10.0 mi Calm Calm - N/A   Clear
7:15 AM 51.8 °F - 36.1 °F 55% 30.04 in 10.0 mi SW 4.6 mph - N/A   Clear
7:35 AM 54.1 °F - 35.6 °F 50% 30.04 in 10.0 mi WSW 4.6 mph - N/A   Clear
7:55 AM 56.8 °F - 37.0 °F 48% 30.04 in 10.0 mi WSW 5.8 mph - N/A   Clear
8:15 AM 56.8 °F - 34.9 °F 44% 30.05 in 10.0 mi WSW 5.8 mph - N/A   Clear
8:35 AM 58.8 °F - 34.5 °F 40% 30.05 in 10.0 mi Calm Calm - N/A   Clear
8:55 AM 59.4 °F - 33.6 °F 38% 30.05 in 10.0 mi West 8.1 mph - N/A   Clear
9:15 AM 61.9 °F - 33.1 °F 34% 30.05 in 10.0 mi West 5.8 mph - N/A   Clear
9:35 AM 63.1 °F - 33.4 °F 33% 30.05 in 10.0 mi West 8.1 mph - N/A   Clear
9:55 AM 64.4 °F - 33.6 °F 32% 30.05 in 10.0 mi West 3.5 mph - N/A   Clear
10:15 AM 65.5 °F - 33.6 °F 31% 30.05 in 10.0 mi West 5.8 mph - N/A   Clear
10:35 AM 67.1 °F - 34.3 °F 30% 30.06 in 10.0 mi West 9.2 mph - N/A   Clear
11:15 AM 70.5 °F - 35.8 °F 28% 30.05 in 10.0 mi WSW 8.1 mph - N/A   Clear
11:35 AM 72.0 °F - 36.0 °F 27% 30.05 in 10.0 mi NNW 6.9 mph - N/A   Clear
11:55 AM 72.0 °F - 35.2 °F 26% 30.04 in 10.0 mi NNW 9.2 mph 16.1 mph N/A   Scattered Clouds
12:15 PM 72.0 °F - 32.7 °F 24% 30.04 in 10.0 mi WNW 9.2 mph - N/A   Scattered Clouds
12:35 PM 72.0 °F - 32.9 °F 24% 30.03 in 10.0 mi WSW 11.5 mph 17.3 mph N/A   Scattered Clouds
12:55 PM 71.6 °F - 32.0 °F 23% 30.03 in 10.0 mi WNW 6.9 mph - N/A   Scattered Clouds
1:15 PM 68.0 °F - 30.6 °F 25% 30.03 in 10.0 mi West 10.4 mph 17.3 mph N/A   Scattered Clouds
1:35 PM 71.1 °F - 30.4 °F 22% 30.03 in 10.0 mi WNW 9.2 mph 19.6 mph N/A   Scattered Clouds
1:55 PM 71.1 °F - 32.7 °F 24% 30.03 in 10.0 mi WSW 13.8 mph 18.4 mph N/A   Scattered Clouds
2:15 PM 70.2 °F - 30.9 °F 23% 30.04 in 10.0 mi West 11.5 mph 24.2 mph N/A   Scattered Clouds
2:35 PM 69.4 °F - 32.2 °F 25% 30.03 in 10.0 mi SW 10.4 mph - N/A   Scattered Clouds
2:55 PM 72.9 °F - 31.3 °F 22% 30.03 in 10.0 mi West 12.7 mph 20.7 mph N/A   Scattered Clouds
3:15 PM 72.0 °F - 32.2 °F 23% 30.03 in 10.0 mi SW 17.3 mph 21.9 mph N/A   Scattered Clouds
3:35 PM 72.0 °F - 32.0 °F 23% 30.03 in 10.0 mi South 13.8 mph 18.4 mph N/A   Clear
3:55 PM 69.4 °F - 32.5 °F 26% 30.03 in 10.0 mi WSW 9.2 mph - N/A   Clear
4:15 PM 72.0 °F - 32.9 °F 24% 30.03 in 10.0 mi WSW 13.8 mph 17.3 mph N/A   Mostly Cloudy
4:35 PM 72.0 °F - 31.3 °F 22% 30.03 in 10.0 mi SW 12.7 mph 18.4 mph N/A   Scattered Clouds
4:55 PM 69.4 °F - 30.9 °F 24% 30.03 in 10.0 mi WSW 10.4 mph 17.3 mph N/A   Clear
5:15 PM 72.0 °F - 31.8 °F 23% 30.03 in 10.0 mi WSW 10.4 mph 18.4 mph N/A   Mostly Cloudy
5:35 PM 69.4 °F - 31.3 °F 24% 30.03 in 10.0 mi West 8.1 mph - N/A   Mostly Cloudy
5:55 PM 67.1 °F - 31.3 °F 26% 30.03 in 10.0 mi SW 4.6 mph - N/A   Mostly Cloudy
6:15 PM 72.0 °F - 33.6 °F 24% 30.02 in 10.0 mi WSW 10.4 mph 16.1 mph N/A   Mostly Cloudy
6:35 PM 72.0 °F - 31.8 °F 23% 30.03 in 10.0 mi WSW 9.2 mph - N/A   Scattered Clouds
6:55 PM 67.1 °F - 30.0 °F 25% 30.03 in 10.0 mi SW 5.8 mph - N/A   Clear
7:15 PM 67.1 °F - 30.9 °F 26% 30.03 in 10.0 mi WSW 9.2 mph - N/A   Scattered Clouds
7:35 PM 65.7 °F - 29.1 °F 25% 30.03 in 10.0 mi WSW 5.8 mph - N/A   Scattered Clouds
7:55 PM 63.9 °F - 28.6 °F 26% 30.03 in 10.0 mi WSW 4.6 mph - N/A   Clear
8:15 PM 61.9 °F - 28.0 °F 28% 30.04 in 10.0 mi SW 4.6 mph - N/A   Clear
8:35 PM 60.3 °F - 28.8 °F 30% 30.04 in 10.0 mi SW 3.5 mph - N/A   Clear
8:55 PM 59.4 °F - 28.9 °F 31% 30.05 in 10.0 mi SW 3.5 mph - N/A   Clear
9:15 PM 56.8 °F - 27.0 °F 32% 30.05 in 10.0 mi Calm Calm - N/A   Clear
9:35 PM 56.8 °F - 27.1 °F 32% 30.06 in 10.0 mi Calm Calm - N/A   Clear
9:55 PM 52.3 °F - 24.8 °F 34% 30.06 in 10.0 mi Calm Calm - N/A   Clear
10:15 PM 51.8 °F - 26.6 °F 38% 30.07 in 10.0 mi Calm Calm - N/A   Clear
10:35 PM 51.8 °F - 27.5 °F 39% 30.07 in 10.0 mi Calm Calm - N/A   Clear
10:55 PM 49.1 °F - 26.2 °F 41% 30.07 in 10.0 mi Calm Calm - N/A   Clear
11:15 PM 46.8 °F - 26.1 °F 44% 30.08 in 10.0 mi Calm Calm - N/A   Clear
11:35 PM 45.5 °F - 27.1 °F 49% 30.08 in 10.0 mi Calm Calm - N/A   Clear
11:55 PM 44.8 °F - 28.4 °F 53% 30.09 in 10.0 mi Calm Calm - N/A   Clear